This is the latest recevied weather packets stored in our database for station/object KB3UMW-13. If no packets are shown the sender has not sent any weather packets the latest 10 day(s).
| Time | Temp. | Humidity | Pressure | Rain* | Wind** | Luminosity | Snow |
|---|---|---|---|---|---|---|---|
| 1778102730 | 10.56° C | 99% | 1010.6 hPa | 0 mm | - | 50 W/m² | - |
| 1778102425 | 10.56° C | 99% | 1010.6 hPa | 0 mm | - | 40 W/m² | - |
| 1778102122 | 10.56° C | 99% | 1010.4 hPa | 0 mm | - | 71 W/m² | - |
| 1778101819 | 11.11° C | 99% | 1010.1 hPa | 0.51 mm | - | 36 W/m² | - |
| 1778101515 | 11.11° C | 99% | 1010.3 hPa | 0.51 mm | - | 41 W/m² | - |
| 1778101212 | 11.67° C | 99% | 1010.4 hPa | 0 mm | - | 30 W/m² | - |
| 1778100909 | 11.67° C | 99% | 1010.3 hPa | 0 mm | - | 38 W/m² | - |
| 1778100604 | 11.67° C | 99% | 1010.1 hPa | 0 mm | - | 77 W/m² | - |
| 1778100303 | 11.67° C | 99% | 1010 hPa | 0 mm | - | 50 W/m² | - |
| 1778099999 | 12.22° C | 99% | 1009.9 hPa | 0 mm | - | 49 W/m² | - |
| 1778099697 | 12.22° C | 99% | 1010 hPa | 0 mm | - | 86 W/m² | - |
| 1778099393 | 12.22° C | 99% | 1009.9 hPa | 0 mm | - | 93 W/m² | - |
| 1778099090 | 12.78° C | 99% | 1009.8 hPa | 0 mm | - | 73 W/m² | - |
| 1778098786 | 12.78° C | 99% | 1009.8 hPa | 0 mm | - | 75 W/m² | - |
| 1778098484 | 12.78° C | 99% | 1009.8 hPa | 0 mm | - | 142 W/m² | - |
| 1778098180 | 12.78° C | 99% | 1010.1 hPa | 0 mm | - | 127 W/m² | - |
| 1778097877 | 12.78° C | 99% | 1009.7 hPa | 0.51 mm | - | 149 W/m² | - |
| 1778097573 | 12.78° C | 99% | 1009.8 hPa | 0.51 mm | - | 117 W/m² | - |
| 1778097270 | 12.78° C | 99% | 1010 hPa | 0 mm | - | 79 W/m² | - |
| 1778096967 | 12.78° C | 98% | 1009.9 hPa | 0 mm | - | 83 W/m² | - |
| 1778096664 | 13.33° C | 98% | 1009.4 hPa | 0 mm | - | 75 W/m² | - |
| 1778096361 | 13.89° C | 98% | 1009.5 hPa | 0 mm | - | 76 W/m² | - |
| 1778096058 | 13.89° C | 97% | 1009.2 hPa | 0 mm | - | 66 W/m² | - |
| 1778095754 | 13.89° C | 97% | 1009.3 hPa | 0 mm | - | 79 W/m² | - |
| 1778095451 | 13.89° C | 97% | 1009.3 hPa | 0 mm | - | 104 W/m² | - |
* Rain latest hour (hover to see other rain measurements)
** Current wind speed in m/s (hover to see current wind gust speed)